TimeCDT,TemperatureF,Dew PointF,Humidity,Sea Level PressureIn,VisibilityMPH,Wind Direction,Wind SpeedMPH,Gust SpeedMPH,PrecipitationIn,Events,Conditions,WindDirDegrees,DateUTC
12:53 AM,36.0,32.0,86,30.29,5.0,NNE,4.6,-,N/A,,Clear,30,2014-04-18 05:53:00
1:53 AM,34.0,30.9,89,30.29,4.0,Calm,Calm,-,N/A,,Clear,0,2014-04-18 06:53:00
2:53 AM,35.1,32.0,89,30.27,4.0,Calm,Calm,-,N/A,,Clear,0,2014-04-18 07:53:00
3:53 AM,32.0,28.9,88,30.27,4.0,North,3.5,-,N/A,,Clear,360,2014-04-18 08:53:00
4:53 AM,34.0,30.0,85,30.27,4.0,North,3.5,-,N/A,,Clear,10,2014-04-18 09:53:00
5:53 AM,32.0,28.9,88,30.27,4.0,North,3.5,-,N/A,,Clear,10,2014-04-18 10:53:00
6:53 AM,32.0,28.0,85,30.28,3.0,Calm,Calm,-,N/A,,Clear,0,2014-04-18 11:53:00
7:03 AM,30.2,28.4,93,30.28,2.5,Calm,Calm,-,N/A,,Clear,0,2014-04-18 12:03:00
7:20 AM,33.8,28.4,81,30.28,3.0,North,3.5,-,N/A,,Clear,10,2014-04-18 12:20:00
7:32 AM,33.8,30.2,87,30.29,2.5,North,3.5,-,N/A,,Clear,10,2014-04-18 12:32:00
7:53 AM,36.0,33.1,89,30.29,2.5,Calm,Calm,-,N/A,,Clear,0,2014-04-18 12:53:00
8:27 AM,44.6,39.2,81,30.29,3.0,Calm,Calm,-,N/A,,Haze,0,2014-04-18 13:27:00
8:53 AM,48.9,39.0,69,30.29,6.0,ESE,3.5,-,N/A,,Haze,110,2014-04-18 13:53:00
9:53 AM,55.0,39.9,57,30.29,9.0,East,4.6,-,N/A,,Clear,90,2014-04-18 14:53:00
10:53 AM,61.0,41.0,48,30.28,10.0,East,5.8,-,N/A,,Clear,100,2014-04-18 15:53:00
11:53 AM,64.0,41.0,43,30.26,10.0,SE,8.1,-,N/A,,Clear,130,2014-04-18 16:53:00
12:53 PM,68.0,42.1,39,30.24,10.0,SSE,9.2,-,N/A,,Clear,150,2014-04-18 17:53:00
2:53 PM,73.0,39.9,30,30.18,10.0,SSE,15.0,19.6,N/A,,Clear,160,2014-04-18 19:53:00
3:53 PM,73.4,39.2,29,30.15,10.0,South,12.7,18.4,N/A,,Clear,170,2014-04-18 20:53:00
4:53 PM,73.0,37.9,28,30.12,10.0,South,5.8,-,N/A,,Clear,180,2014-04-18 21:53:00
5:53 PM,73.9,37.9,27,30.11,10.0,South,8.1,-,N/A,,Clear,180,2014-04-18 22:53:00
6:53 PM,73.0,37.9,28,30.10,10.0,SSE,11.5,17.3,N/A,,Clear,160,2014-04-18 23:53:00
7:53 PM,69.1,37.9,32,30.09,10.0,South,5.8,-,N/A,,Clear,170,2014-04-19 00:53:00
8:53 PM,60.1,39.0,46,30.10,10.0,SE,6.9,-,N/A,,Clear,140,2014-04-19 01:53:00
9:53 PM,60.8,39.2,45,30.12,10.0,SE,8.1,-,N/A,,Clear,130,2014-04-19 02:53:00
10:53 PM,57.9,39.0,49,30.11,10.0,SE,9.2,-,N/A,,Clear,130,2014-04-19 03:53:00
11:53 PM,57.0,39.0,51,30.12,9.0,SE,9.2,-,N/A,,Clear,140,2014-04-19 04:53:00